Location: Central Falls
(41.8900°N, 71.3929°W)
Time: 03:04:39
(UTC+00:00)

Vanguard 2 - Pass Details

Date: 04 December 2023
Orbit: 554 x 2918 km, 32.9° (Epoch: 01 March)

Event Time Altitude Azimuth Distance (km) Brightness Sun altitude
Rises 07:53:52 0° 274° (W) 5,430 - -44.4°
Reaches altitude 10° 07:59:00 10° 261° (W) 3,948 - -43.4°
Maximum altitude 08:05:41 21° 219° (SW) 2,534 - -42.2°
Drops below altitude 10° 08:10:33 10° 172° (S) 2,753 - -41.3°
Exits shadow 08:13:06 - 157° (SSE) 3,337 11.0 -40.8°
Sets 08:13:22 0° 155° (SSE) 3,413 11.1 -40.8°
